Location: Altenst�hlen
(53.5567°N, 8.9425°E)
Time: 22:51:58
(UTC+00:00)

NOSS 3-2 (C) - Pass Details

Date: 23 October 2019
Orbit: 818 x 1394 km, 63.4° (Epoch: 11 November)

Event Time Altitude Azimuth Distance (km) Brightness Sun altitude
Rises 20:11:15 0° 252° (WSW) 3,510 6.9 -35.2°
Reaches altitude 10° 20:13:42 10° 258° (WSW) 2,633 6.2 -35.5°
Enters shadow 20:19:11 51° 318° (NW) 1,262 4.2 -36.2°
